Flag for Spain Weather past 2 weeks in Sevilla, Spain

Now
54 °F

Fog.


Feels Like: 54 °F
Forecast: 52 / 67 °F
Wind: No wind

Location: Sevilla / San Pablo

Current Time: Mar 4, 2015 at 4:15:27 AM

Latest Report: Mar 4, 2015 at 4:00 AM


Visibility: 1 mi

Pressure: 30.27 "Hg

Humidity: 100%

Dew point: 54 °F

Location of SevillaLocation

Historic Weather in Sevilla — Graph

°F

Sevilla temperature yesterday

Maximum temperature yesterday: 70 °F (at 5:00 PM)
Minimum temperature yesterday: 48 °F (at 4:30 AM)
Average temperature yesterday: 58 °F

Past Weeks' High & Low Weather Summary

 TemperatureHumidityPressure
High73 °F (Mar 2, 3:30 PM)100% (Feb 21, 9:30 AM)30.51 "Hg (Feb 21, 9:30 AM)
Low39 °F (Feb 20, 5:30 AM)30% (Feb 19, 4:00 PM)29.83 "Hg (Feb 21, 3:00 PM)
Average55 °F69%30.24 "Hg
* Reported Feb 17 1:00 AM — Mar 4 1:00 AM, Sevilla, Weather by CustomWeather, © 2015

Note: Actual official high and low records may vary slightly from our data, if they occured in-between our weather recording intervals... More about our weather records

Advertising

Sevilla weather history for previous 24 hours

 ConditionsComfort  
Time TempWeatherWind HumidityBarometerVisibility
1:00 AM
Wed, Mar 4
55 °FClear.3 mph94%30.30 "Hg4 mi
12:30 AM55 °FClear.2 mph94%30.30 "Hg5 mi
12:00 AM55 °FClear.3 mph94%30.30 "Hg6 mi
11:30 PM
Tue, Mar 3
57 °FClear.7 mph88%30.30 "Hg10 mi
11:00 PM57 °FPassing clouds.5 mph88%30.27 "HgN/A
10:30 PM57 °FPassing clouds.3 mph88%30.27 "HgN/A
10:00 PM59 °FPassing clouds.8 mph82%30.27 "HgN/A
9:30 PM59 °FClear.8 mph82%30.27 "Hg10 mi
8:30 PM63 °FPassing clouds.9 mph83%30.27 "HgN/A
8:00 PM64 °FClear.10 mph78%30.24 "Hg10 mi
7:30 PM66 °FClear.10 mph73%30.24 "Hg10 mi
7:00 PM68 °FSunny.9 mph69%30.24 "Hg10 mi
6:30 PM68 °FSunny.7 mph69%30.21 "Hg10 mi
6:00 PM68 °FSunny.5 mph69%30.21 "Hg10 mi
5:30 PM70 °FSunny.8 mph57%30.21 "Hg10 mi
5:00 PM70 °FPassing clouds.8 mph60%30.21 "HgN/A
4:30 PM68 °FSunny.9 mph69%30.24 "Hg10 mi
4:00 PM68 °FPassing clouds.7 mph60%30.24 "HgN/A
3:30 PM66 °FPassing clouds.6 mph68%30.24 "HgN/A
3:00 PM64 °FPassing clouds.5 mph73%30.24 "HgN/A
2:30 PM64 °FClear.3 mph78%30.27 "Hg6 mi
2:00 PM63 °FPassing clouds.3 mph83%30.27 "Hg5 mi
1:30 PM63 °FPassing clouds.1 mph83%30.27 "Hg4 mi
1:00 PM59 °FPartly sunny.2 mph88%30.30 "Hg4 mi
12:30 PM57 °FLow clouds.No wind94%30.30 "Hg4 mi
12:00 PM55 °FLow clouds.No wind100%30.30 "Hg4 mi
11:30 AM55 °FFog.No wind100%30.30 "Hg2 mi
11:00 AM54 °FFog.No wind100%30.30 "Hg2 mi
10:30 AM54 °FFog.1 mph100%30.30 "Hg1 mi
10:00 AM54 °FFog.No wind100%30.30 "Hg1 mi
9:30 AM54 °FFog.1 mph100%30.27 "Hg1 mi
9:00 AM54 °FFog.No wind94%30.27 "Hg1 mi
8:30 AM52 °FFog.1 mph100%30.27 "Hg0 mi
8:00 AM52 °FFog.2 mph100%30.27 "Hg0 mi
7:30 AM52 °FFog.2 mph100%30.24 "Hg0 mi
7:00 AM52 °FFog.1 mph100%30.24 "Hg0 mi
6:30 AM52 °FFog.No wind100%30.24 "Hg0 mi
6:00 AM50 °FFog.1 mph100%30.24 "Hg0 mi
5:30 AM50 °FFog.3 mph100%30.21 "Hg1 mi
5:00 AM50 °FClear.1 mph100%30.21 "Hg4 mi
4:30 AM48 °FClear.1 mph100%30.21 "Hg4 mi
4:00 AM50 °FClear.No wind94%30.21 "Hg10 mi
Weather by CustomWeather, © 2015

See weather overviewHow to use our weather pages